This is the latest recevied weather packets stored in our database for station/object W5CDN. If no packets are shown the sender has not sent any weather packets the latest 10 day(s).
| Time | Temp. | Humidity | Pressure | Rain* | Wind** | Luminosity | Snow |
|---|---|---|---|---|---|---|---|
| 1788114536 | 36.11° C | 45% | 1014.9 hPa | 0 mm | - | - | - |
| 1788114236 | 35.56° C | 46% | 1014.8 hPa | 0 mm | - | - | - |
| 1788113936 | 35.56° C | 46% | 1015 hPa | 0 mm | - | - | - |
| 1788113636 | 35° C | 47% | 1015.1 hPa | 0 mm | - | - | - |
| 1788113336 | 34.44° C | 48% | 1015.2 hPa | 0 mm | - | - | - |
| 1788113036 | 35.56° C | 47% | 1015.1 hPa | 0 mm | - | - | - |
| 1788112736 | 35.56° C | 46% | 1015.3 hPa | 0 mm | - | - | - |
| 1788112436 | 35° C | 47% | 1015.2 hPa | 0 mm | - | - | - |
| 1788112136 | 35° C | 47% | 1015.3 hPa | 0 mm | - | - | - |
| 1788111836 | 35° C | 47% | 1015.3 hPa | 0 mm | - | - | - |
| 1788111536 | 34.44° C | 48% | 1015.4 hPa | 0 mm | - | - | - |
| 1788111236 | 34.44° C | 48% | 1015.4 hPa | 0 mm | - | - | - |
| 1788110936 | 33.89° C | 48% | 1015.4 hPa | 0 mm | - | - | - |
| 1788110636 | 33.89° C | 50% | 1015.8 hPa | 0 mm | - | - | - |
| 1788110336 | 34.44° C | 49% | 1015.7 hPa | 0 mm | - | - | - |
| 1788110036 | 34.44° C | 48% | 1015.8 hPa | 0 mm | - | - | - |
| 1788109736 | 33.89° C | 49% | 1015.8 hPa | 0 mm | - | - | - |
| 1788109436 | 33.89° C | 50% | 1015.8 hPa | 0 mm | - | - | - |
| 1788109136 | 33.89° C | 50% | 1015.9 hPa | 0 mm | - | - | - |
| 1788108836 | 33.89° C | 48% | 1016 hPa | 0 mm | - | - | - |
| 1788108536 | 33.89° C | 50% | 1016.2 hPa | 0 mm | - | - | - |
| 1788108236 | 33.89° C | 48% | 1016.2 hPa | 0 mm | - | - | - |
| 1788107936 | 33.89° C | 49% | 1016.2 hPa | 0 mm | - | - | - |
| 1788107636 | 33.33° C | 52% | 1016.3 hPa | 0 mm | - | - | - |
| 1788107336 | 33.33° C | 54% | 1016.1 hPa | 0 mm | - | - | - |
* Rain latest hour (hover to see other rain measurements)
** Current wind speed in m/s (hover to see current wind gust speed)